[[{"header":{"parameterUnit":"m.s-1","parameterCategory":1,"la1":30.2991,"la2":30.254,"lo1":-89.0895,"lo2":-89.0444,"dy":0.0017,"dx":0.0017,"nx":28,"ny":28,"refTime":"2025-12-23T09:00:00:Z","depth":0,"parameterNumber":2,"parameterNumberName":"U-component_of_WINDS"},"data":[0,0,0,0,0,0,0,0,0,0,0,0,0,0,0,0,0,0,0,0,0,0,0,0,0,0,0,0,0,0,0,0,0,0,0,0,0,0,0,0,0,0,0,0,0,0,0,0,0,0,0,0,0,0,0,0,0,0,1.6961,1.6962,0,1.7048,1.7049,1.705,1.7061,1.706,1.7059,1.7058,1.715,1.7153,1.7156,0,0,0,0,0,0,0,0,0,0,0,0,0,1.6803,1.6806,1.6961,1.6962,1.6963,1.7048,1.705,1.7051,1.7061,1.706,1.7059,1.7058,1.7149,1.7152,1.7156,0,0,0,0,0,0,0,0,0,0,0,0,0,1.6879,1.6807,1.696,1.6978,1.6981,1.7048,1.705,1.7051,1.7061,1.706,1.7059,1.7058,1.7147,1.7152,1.7157,1.7213,0,0,1.7172,1.7174,0,0,0,0,0,0,0,0,1.6875,1.6885,1.6974,1.6977,1.698,1.7042,1.7027,1.7105,1.7062,1.7031,1.7058,1.7057,1.7115,1.7123,1.7142,1.7217,1.7221,1.7172,1.7175,1.7177,1.7178,0,0,0,0,0,0,0,1.687,1.6881,1.6995,1.6976,1.6979,1.6982,1.6992,1.7042,1.7079,1.7033,1.7034,1.7045,1.7116,1.7137,1.7144,1.7222,1.7172,1.7176,1.7179,1.7181,1.7348,1.7349,0,0,0,0,0,0,1.6861,1.6877,1.6993,1.6998,1.6923,1.6986,1.6997,1.7024,1.7079,1.7086,1.7046,1.7045,1.713,1.7138,1.7147,1.7216,1.7177,1.7182,1.7184,1.7347,1.7348,1.735,0,0,0,0,0,0,1.6857,1.6871,1.6989,1.6938,1.6953,1.699,1.7021,1.7026,1.7047,1.7088,1.7095,1.706,1.7129,1.7141,1.7196,1.722,1.7184,1.7188,1.7345,1.7347,1.7349,1.7355,0,0,0,0,0,0,1.6853,1.687,1.6891,1.6938,1.6956,1.7036,1.7022,1.7029,1.7055,1.7055,1.7103,1.711,1.7129,1.7189,1.7201,1.7226,1.7192,1.7343,1.7346,1.7348,1.7353,1.7357,1.7361,0,0,0,0,0,1.6847,1.6889,1.6892,1.6906,1.6983,1.7037,1.7048,1.7068,1.7057,1.7079,1.7105,1.7108,1.7215,1.7195,1.7208,1.7235,1.7341,1.7345,1.7348,1.7351,1.7356,1.7361,0,0,0,0,0,0,1.6844,1.6896,1.6899,1.6958,1.6993,1.7039,1.7067,1.7073,1.7112,1.711,1.7135,1.7145,1.72,1.7223,1.7199,1.7292,1.7277,1.7284,1.7275,1.728,1.7284,1.7277,1.7196,0,0,0,0,0,1.6851,1.689,1.6933,1.6981,1.6998,1.703,1.7054,1.7067,1.7105,1.712,1.715,1.7187,1.7229,1.7256,1.7297,1.7356,1.7367,1.7381,1.7385,1.7388,1.7394,1.7427,1.7434,1.7361,1.7361,1.7361,0,0,1.6864,1.6897,1.692,1.6981,1.701,1.7051,1.7042,1.7086,1.7116,1.7126,1.7181,1.7205,1.7247,1.7305,1.7332,1.7326,1.7416,1.7393,1.7395,1.7398,1.7431,1.7438,1.7444,1.7364,1.7363,1.7363,0,0,1.6908,1.6937,1.698,1.7009,1.7053,1.7074,1.7084,1.7129,1.7145,1.72,1.7209,1.7246,1.7317,1.7347,1.7372,1.7429,1.7433,1.7441,1.7462,1.7494,1.75,1.7505,1.7525,1.7532,1.7446,1.7446,1.7446,0,1.6919,1.6981,1.7002,1.7045,1.7071,1.7082,1.7126,1.7153,1.7208,1.7226,1.7219,1.7309,1.7338,1.7404,1.7417,1.7437,1.745,1.7436,1.7497,1.7503,1.7508,1.7527,1.7535,1.7447,1.7447,1.7447,1.7447,0,1.6992,1.7034,1.7064,1.7116,1.7146,1.7189,1.7217,1.7245,1.7256,1.7277,1.7333,1.7369,1.7417,1.7434,1.7445,1.7501,1.7495,1.7492,1.7478,1.7515,1.7534,1.7541,1.7448,1.7448,1.7448,1.7447,0,0,1.7037,1.71,1.7111,1.7135,1.7184,1.7217,1.7261,1.7308,1.7332,1.7369,1.7407,1.7468,1.7465,1.7493,1.7507,1.7535,1.7578,1.7529,1.753,1.7536,1.7642,1.7643,1.7652,1.7581,1.7583,1.7584,1.7638,0,1.7087,1.7165,1.7185,1.7252,1.7292,1.7303,1.7341,1.7376,1.7397,1.7434,1.7459,1.7501,1.7494,1.7511,1.754,1.7566,1.7599,1.7563,1.7616,1.7618,1.7605,1.7661,1.7663,1.7713,1.7646,1.7647,1.7648,0,1.7156,1.7194,1.7265,1.7309,1.7326,1.736,1.7405,1.744,1.748,1.7494,1.7525,1.7537,1.7583,1.7567,1.7632,1.7606,1.763,1.7646,1.7649,1.7654,1.7635,1.7668,1.7729,1.7736,1.7659,1.7658,1.7658,0,1.7181,1.7251,1.7302,1.7322,1.7375,1.7399,1.7422,1.746,1.7487,1.7527,1.7544,1.7589,1.7613,1.7647,1.767,1.7656,1.7733,1.7719,1.7746,1.7745,1.7761,1.776,1.7826,1.7777,1.7777,1.7777,1.7776,0,1.7234,1.7277,1.7314,1.7345,1.7394,1.7417,1.7464,1.7488,1.7522,1.7558,1.7571,1.7605,1.7634,1.7672,1.7691,1.7741,1.7752,1.7765,1.7769,1.7764,1.7762,1.7779,1.7776,1.7779,1.7778,1.7778,1.7777,0,1.727,1.7297,1.7353,1.7399,1.7411,1.7445,1.7484,1.7515,1.7537,1.7583,1.7595,1.763,1.7676,1.7703,1.776,1.7773,1.7829,1.7832,1.7815,1.7817,1.7842,1.7839,1.7922,1.7933,1.7877,1.7877,1.7878,0,1.7302,1.7335,1.7384,1.741,1.7433,1.7474,1.7501,1.7526,1.7554,1.7601,1.7627,1.7673,1.7711,1.7783,1.7814,1.7858,1.7862,1.7888,1.7869,1.7862,1.7862,1.786,1.7863,1.7891,1.7892,1.7892,1.7892,0,1.7356,1.7368,1.7407,1.7451,1.7483,1.7519,1.7554,1.7574,1.7605,1.7636,1.7683,1.7712,1.7771,1.7817,1.7863,1.7888,1.7895,1.7898,1.7907,1.7901,1.7889,1.7895,1.7823,1.7896,1.7896,1.7895,1.7895,1.7895,1.7391,1.7421,1.746,1.7503,1.7533,1.7566,1.7597,1.7623,1.7662,1.7711,1.7724,1.7773,1.7812,1.7875,1.7901,1.794,1.7935,1.7948,1.7951,1.7953,1.7954,1.7884,1.7948,1.7948,1.7948,1.7948,1.7948,0,1.7446,1.7471,1.7511,1.756,1.7594,1.7598,1.7638,1.7666,1.7708,1.7744,1.7781,1.7835,1.7879,1.7914,1.7959,1.7984,1.7988,1.7995,1.7993,1.7998,1.7955,1.7943,1.799,1.799,1.799,1.799,1.799,1.799,1.7478,1.7528,1.7544,1.761,1.7635,1.7683,1.7705,1.7736,1.7764,1.7823,1.786,1.7882,1.7918,1.7966,1.8007,1.8016,1.8032,1.8038,1.8047,1.8006,1.8002,1.7997,1.7986,1.8041,1.8042,1.8088,1.8088,1.8088]},{"header":{"parameterUnit":"m.s-1","parameterCategory":1,"la1":30.2991,"la2":30.254,"lo1":-89.0895,"lo2":-89.0444,"dy":0.0017,"dx":0.0017,"nx":28,"ny":28,"refTime":"2025-12-23T09:00:00:Z","depth":0,"parameterNumber":3,"parameterNumberName":"V-component_of_WINDS"},"data":[0,0,0,0,0,0,0,0,0,0,0,0,0,0,0,0,0,0,0,0,0,0,0,0,0,0,0,0,0,0,0,0,0,0,0,0,0,0,0,0,0,0,0,0,0,0,0,0,0,0,0,0,0,0,0,0,0,0,0.4128,0.4128,0,0.408,0.4079,0.4079,0.4074,0.4075,0.4075,0.4076,0.4021,0.4019,0.4017,0,0,0,0,0,0,0,0,0,0,0,0,0,0.421,0.4209,0.4128,0.4127,0.4127,0.408,0.4079,0.4078,0.4074,0.4075,0.4076,0.4076,0.4021,0.4019,0.4017,0,0,0,0,0,0,0,0,0,0,0,0,0,0.417,0.4209,0.4128,0.4119,0.4118,0.408,0.4079,0.4078,0.4074,0.4075,0.4076,0.4076,0.4022,0.4019,0.4016,0.3982,0,0,0.4007,0.4006,0,0,0,0,0,0,0,0,0.4172,0.4166,0.4121,0.412,0.4118,0.4084,0.4088,0.4046,0.4074,0.4091,0.4076,0.4077,0.4041,0.4036,0.4025,0.398,0.3977,0.4007,0.4005,0.4004,0.4003,0,0,0,0,0,0,0,0.4175,0.4169,0.4109,0.412,0.4119,0.4116,0.4111,0.408,0.4061,0.4089,0.4089,0.4083,0.404,0.4028,0.4024,0.3976,0.4007,0.4004,0.4003,0.4001,0.3898,0.3897,0,0,0,0,0,0,0.418,0.4171,0.411,0.4107,0.4148,0.4113,0.4108,0.4094,0.4062,0.4058,0.4083,0.4083,0.4033,0.4027,0.4022,0.3978,0.4004,0.4001,0.4,0.3899,0.3898,0.3897,0,0,0,0,0,0,0.4182,0.4175,0.4112,0.4139,0.4131,0.4111,0.4096,0.4093,0.4081,0.4057,0.4053,0.4074,0.4033,0.4026,0.3992,0.3977,0.4,0.3997,0.39,0.3898,0.3897,0.3892,0,0,0,0,0,0,0.4184,0.4175,0.4164,0.4139,0.413,0.4085,0.4095,0.4091,0.4077,0.4077,0.4048,0.4044,0.4033,0.3996,0.3989,0.3973,0.3995,0.3901,0.3899,0.3898,0.3894,0.3891,0.3888,0,0,0,0,0,0.4187,0.4163,0.4163,0.4156,0.4115,0.4084,0.4079,0.4068,0.4075,0.4062,0.4047,0.4045,0.398,0.3993,0.3985,0.3967,0.3902,0.39,0.3898,0.3895,0.3891,0.3888,0,0,0,0,0,0,0.4185,0.416,0.416,0.4127,0.4108,0.4084,0.4067,0.4065,0.4042,0.4043,0.4029,0.4023,0.3989,0.3975,0.399,0.3932,0.3941,0.3937,0.3942,0.3938,0.3936,0.3939,0.3992,0,0,0,0,0,0.4181,0.4161,0.4139,0.4112,0.4103,0.4087,0.4073,0.4067,0.4045,0.4037,0.4019,0.3996,0.3971,0.3954,0.3929,0.3892,0.3884,0.3876,0.3873,0.3871,0.3867,0.3844,0.384,0.3889,0.3889,0.3889,0,0,0.4172,0.4156,0.4144,0.4112,0.4096,0.4073,0.408,0.4055,0.4037,0.4032,0.3999,0.3985,0.3959,0.3923,0.3906,0.391,0.3852,0.3868,0.3867,0.3864,0.3841,0.3837,0.3833,0.3888,0.3888,0.3888,0,0,0.4144,0.4131,0.4107,0.4091,0.4068,0.4057,0.4051,0.4027,0.4018,0.3985,0.3981,0.3958,0.3914,0.3895,0.388,0.3844,0.3841,0.3836,0.3821,0.3799,0.3795,0.3792,0.3777,0.3772,0.3833,0.3833,0.3833,0,0.4136,0.4102,0.4094,0.4069,0.4054,0.4051,0.4025,0.401,0.3979,0.3967,0.3973,0.3918,0.39,0.3859,0.385,0.3838,0.3829,0.3839,0.3797,0.3793,0.379,0.3776,0.377,0.3832,0.3832,0.3832,0.3832,0,0.4092,0.4069,0.4052,0.4024,0.4007,0.3982,0.3967,0.3951,0.3946,0.3934,0.3899,0.3878,0.3848,0.3838,0.3832,0.3794,0.3798,0.38,0.381,0.3785,0.3771,0.3766,0.3831,0.3832,0.3832,0.3832,0,0,0.4061,0.4029,0.4022,0.4009,0.3983,0.3963,0.3937,0.391,0.3895,0.3873,0.3849,0.3812,0.3815,0.3797,0.3789,0.377,0.374,0.3775,0.3774,0.3768,0.3695,0.3693,0.3687,0.3739,0.3738,0.3737,0.3697,0,0.4028,0.3984,0.3975,0.3935,0.3912,0.3908,0.3885,0.3865,0.3853,0.383,0.3815,0.3789,0.3795,0.3784,0.3765,0.3748,0.3725,0.3751,0.3713,0.3712,0.3719,0.368,0.3677,0.364,0.3692,0.3691,0.369,0,0.3985,0.3964,0.3922,0.3898,0.3888,0.3868,0.3841,0.382,0.3796,0.3788,0.3769,0.3763,0.3733,0.3745,0.3701,0.3719,0.3703,0.3692,0.369,0.3685,0.3699,0.3672,0.3629,0.3623,0.3682,0.3683,0.3683,0,0.3964,0.3925,0.3895,0.3884,0.3855,0.3841,0.3828,0.3805,0.3789,0.3765,0.3753,0.3726,0.371,0.3687,0.3673,0.3683,0.363,0.3641,0.362,0.3621,0.3608,0.3609,0.3561,0.3601,0.3601,0.3601,0.3601,0,0.3928,0.3902,0.3885,0.3866,0.3836,0.3826,0.3796,0.3783,0.3763,0.3739,0.3734,0.3712,0.3695,0.3669,0.3658,0.3622,0.3616,0.3607,0.3603,0.3606,0.3607,0.3595,0.3596,0.36,0.36,0.36,0.36,0,0.3899,0.3887,0.3854,0.383,0.3823,0.3802,0.378,0.3761,0.3749,0.3719,0.3711,0.3691,0.3661,0.3645,0.3607,0.3599,0.3559,0.3558,0.3567,0.3565,0.3545,0.3547,0.3485,0.3476,0.3524,0.3524,0.3524,0,0.3876,0.3857,0.3831,0.3816,0.3803,0.3779,0.3763,0.3751,0.3733,0.3705,0.3688,0.3658,0.3633,0.3585,0.3565,0.3535,0.3532,0.3513,0.3527,0.353,0.353,0.353,0.3527,0.351,0.3509,0.3509,0.3509,0,0.3836,0.3831,0.3809,0.3784,0.3765,0.3744,0.3724,0.3711,0.3695,0.3676,0.3646,0.3627,0.3588,0.3557,0.3526,0.351,0.3505,0.3504,0.3498,0.3499,0.3505,0.35,0.3558,0.3505,0.3506,0.3506,0.3506,0.3506,0.3809,0.379,0.3769,0.3744,0.3728,0.3708,0.3688,0.3674,0.365,0.3619,0.3613,0.358,0.3555,0.3513,0.3496,0.3469,0.3473,0.3463,0.3461,0.3458,0.3456,0.3511,0.3463,0.3463,0.3464,0.3464,0.3464,0,0.3767,0.3753,0.373,0.3702,0.3682,0.3682,0.3659,0.3641,0.3613,0.3592,0.3568,0.3532,0.3502,0.348,0.3449,0.3431,0.3428,0.3423,0.3424,0.3419,0.3456,0.3464,0.3426,0.3426,0.3426,0.3426,0.3426,0.3426,0.3743,0.3711,0.3704,0.3663,0.3649,0.3619,0.3605,0.3587,0.3569,0.353,0.3506,0.3493,0.347,0.3437,0.3409,0.3403,0.3391,0.3386,0.3379,0.3413,0.3417,0.3421,0.3428,0.3384,0.3383,0.3345,0.3344,0.3344]}]]